[[{"header":{"parameterUnit":"m.s-1","parameterCategory":1,"la1":30.2991,"la2":30.254,"lo1":-89.0895,"lo2":-89.0444,"dy":0.0017,"dx":0.0017,"nx":28,"ny":28,"refTime":"2024-05-22T03:00:00:Z","depth":0,"parameterNumber":2,"parameterNumberName":"U-component_of_WINDS"},"data":[0,0,0,0,0,0,0,0,0,0,0,0,0,0,0,0,0,0,0,0,0,0,0,0,0,0,0,0,0,0,0,0,0,0,0,0,0,0,0,0,0,0,0,0,0,0,0,0,0,0,0,0,0,0,0,0,0,0,-3.7854,-3.7855,0,-3.7903,-3.7904,-3.7904,-3.7862,-3.786,-3.7859,-3.7857,-3.7905,-3.7908,-3.7911,0,0,0,0,0,0,0,0,0,0,0,0,0,-3.7724,-3.7727,-3.7854,-3.7855,-3.7855,-3.7903,-3.7904,-3.7904,-3.7862,-3.786,-3.7858,-3.7856,-3.7904,-3.7908,-3.7911,0,0,0,0,0,0,0,0,0,0,0,0,0,-3.7778,-3.7728,-3.7854,-3.784,-3.784,-3.7903,-3.7904,-3.7905,-3.7863,-3.786,-3.7858,-3.7855,-3.7903,-3.7907,-3.7912,-3.799,0,0,-3.7925,-3.7927,0,0,0,0,0,0,0,0,-3.7775,-3.7782,-3.7842,-3.7841,-3.7841,-3.7874,-3.7876,-3.7933,-3.7864,-3.7854,-3.7857,-3.7854,-3.7897,-3.7901,-3.7916,-3.7993,-3.7995,-3.7925,-3.7928,-3.793,-3.7931,0,0,0,0,0,0,0,-3.7771,-3.778,-3.7873,-3.7843,-3.7842,-3.7832,-3.7836,-3.7886,-3.7889,-3.7855,-3.7852,-3.7858,-3.7896,-3.7912,-3.7917,-3.7995,-3.7925,-3.7929,-3.7932,-3.7933,-3.8141,-3.8143,0,0,0,0,0,0,-3.7769,-3.7777,-3.7872,-3.7875,-3.7801,-3.7836,-3.7841,-3.7866,-3.7889,-3.789,-3.786,-3.7856,-3.7906,-3.7912,-3.7919,-3.8012,-3.793,-3.7934,-3.7936,-3.8138,-3.8141,-3.8144,0,0,0,0,0,0,-3.7766,-3.7778,-3.787,-3.7825,-3.7836,-3.7841,-3.7869,-3.7868,-3.7884,-3.7893,-3.7893,-3.7876,-3.7904,-3.7912,-3.7973,-3.8013,-3.7936,-3.794,-3.8134,-3.8139,-3.8143,-3.82,0,0,0,0,0,0,-3.7763,-3.7777,-3.7807,-3.7826,-3.7839,-3.7924,-3.7871,-3.7871,-3.7892,-3.7887,-3.7908,-3.7909,-3.7903,-3.7967,-3.7978,-3.8018,-3.7943,-3.8131,-3.8136,-3.8141,-3.8195,-3.8206,-3.8216,0,0,0,0,0,-3.7758,-3.782,-3.7808,-3.782,-3.7876,-3.7926,-3.7933,-3.7925,-3.7896,-3.7925,-3.7932,-3.7908,-3.8008,-3.7974,-3.7985,-3.8027,-3.8128,-3.8135,-3.8141,-3.819,-3.8204,-3.8215,0,0,0,0,0,0,-3.7803,-3.7822,-3.7809,-3.788,-3.7902,-3.7919,-3.7956,-3.794,-3.797,-3.7964,-3.7953,-3.7958,-3.8022,-3.8031,-3.7993,-3.8106,-3.8063,-3.8072,-3.8097,-3.811,-3.812,-3.8115,-3.7947,0,0,0,0,0,-3.7822,-3.7861,-3.7876,-3.7936,-3.7948,-3.7951,-3.7972,-3.7965,-3.7987,-3.7995,-3.8006,-3.8028,-3.8064,-3.8088,-3.8122,-3.8197,-3.8201,-3.8232,-3.8243,-3.8251,-3.8258,-3.8299,-3.8313,-3.8166,-3.8166,-3.8166,0,0,-3.786,-3.7875,-3.79,-3.7946,-3.7962,-3.8003,-3.7959,-3.8003,-3.8033,-3.8002,-3.806,-3.8069,-3.8093,-3.8161,-3.8192,-3.8171,-3.8301,-3.826,-3.8266,-3.8269,-3.8307,-3.8321,-3.8334,-3.817,-3.8169,-3.8169,0,0,-3.7949,-3.7965,-3.8017,-3.8035,-3.8061,-3.8063,-3.8076,-3.8096,-3.8101,-3.816,-3.8138,-3.8174,-3.8237,-3.8255,-3.8272,-3.8373,-3.8352,-3.8384,-3.8437,-3.8478,-3.8489,-3.8499,-3.8534,-3.8547,-3.8392,-3.8392,-3.8392,0,-3.7992,-3.8052,-3.8046,-3.8093,-3.8114,-3.809,-3.8143,-3.8161,-3.8196,-3.8211,-3.8188,-3.8267,-3.8282,-3.8354,-3.8379,-3.8395,-3.8409,-3.838,-3.8488,-3.8498,-3.8508,-3.8541,-3.8554,-3.8396,-3.8395,-3.8395,-3.8395,0,-3.8104,-3.8147,-3.8186,-3.8222,-3.8248,-3.8298,-3.8299,-3.8326,-3.8318,-3.8323,-3.8383,-3.8401,-3.8438,-3.8455,-3.8447,-3.8527,-3.8513,-3.849,-3.8446,-3.8525,-3.8556,-3.8569,-3.8401,-3.84,-3.8399,-3.8398,0,0,-3.8218,-3.8253,-3.8267,-3.8284,-3.8313,-3.8345,-3.8395,-3.8433,-3.8456,-3.8483,-3.8523,-3.8579,-3.8558,-3.8578,-3.8572,-3.8608,-3.8686,-3.858,-3.858,-3.8597,-3.8775,-3.879,-3.8805,-3.8674,-3.8677,-3.8679,-3.8772,0,-3.8307,-3.8393,-3.8391,-3.8471,-3.851,-3.849,-3.8534,-3.8556,-3.8563,-3.8598,-3.8605,-3.8644,-3.8614,-3.8626,-3.8661,-3.8669,-3.8721,-3.8663,-3.8711,-3.8712,-3.8702,-3.8821,-3.8838,-3.8925,-3.8784,-3.8786,-3.8788,0,-3.8421,-3.8453,-3.8537,-3.8562,-3.8578,-3.8617,-3.8652,-3.8686,-3.8712,-3.8715,-3.8739,-3.8728,-3.8779,-3.8738,-3.8807,-3.8768,-3.8788,-3.8796,-3.8799,-3.88,-3.8752,-3.8824,-3.8953,-3.8965,-3.8807,-3.8805,-3.8804,0,-3.8494,-3.8558,-3.8617,-3.8632,-3.8663,-3.8691,-3.8705,-3.8728,-3.8752,-3.8783,-3.8798,-3.8835,-3.8855,-3.8884,-3.8884,-3.8854,-3.8954,-3.8912,-3.8956,-3.8957,-3.8975,-3.8973,-3.9106,-3.8993,-3.8993,-3.8993,-3.8993,0,-3.8592,-3.8644,-3.865,-3.8686,-3.8744,-3.8742,-3.88,-3.8811,-3.8833,-3.8871,-3.8857,-3.8893,-3.8892,-3.8929,-3.8929,-3.8987,-3.8996,-3.8999,-3.8998,-3.8999,-3.8998,-3.9009,-3.9002,-3.8997,-3.8996,-3.8995,-3.8994,0,-3.8681,-3.8688,-3.8751,-3.8776,-3.8783,-3.8825,-3.8846,-3.888,-3.8888,-3.8936,-3.8947,-3.8958,-3.9001,-3.9005,-3.9054,-3.9055,-3.9124,-3.9118,-3.9115,-3.9113,-3.9156,-3.9151,-3.9299,-3.9317,-3.9195,-3.9196,-3.9197,0,-3.8741,-3.8781,-3.8811,-3.8836,-3.8852,-3.8892,-3.8917,-3.8918,-3.8944,-3.8978,-3.9008,-3.905,-3.9083,-3.9153,-3.9165,-3.9203,-3.9196,-3.9245,-3.9201,-3.9201,-3.9194,-3.9191,-3.9194,-3.9252,-3.9254,-3.9255,-3.9256,0,-3.8847,-3.8849,-3.8885,-3.8924,-3.8954,-3.8984,-3.9012,-3.9033,-3.9038,-3.9068,-3.9112,-3.9138,-3.919,-3.9231,-3.927,-3.9284,-3.9271,-3.9271,-3.9282,-3.9282,-3.9278,-3.9279,-3.9135,-3.9266,-3.9265,-3.9264,-3.9264,-3.9263,-3.8922,-3.8957,-3.8984,-3.9025,-3.9047,-3.9074,-3.9108,-3.9121,-3.9158,-3.92,-3.9199,-3.9248,-3.9275,-3.9325,-3.9343,-3.9381,-3.9364,-3.9382,-3.9386,-3.9389,-3.9393,-3.9275,-3.9388,-3.9388,-3.9388,-3.9388,-3.9387,0,-3.9026,-3.9043,-3.9081,-3.9122,-3.9155,-3.9142,-3.9173,-3.9201,-3.9244,-3.9271,-3.9305,-3.9357,-3.9398,-3.9415,-3.9455,-3.9483,-3.9478,-3.9493,-3.9489,-3.9493,-3.9406,-3.9391,-3.9497,-3.9497,-3.9497,-3.9496,-3.9496,-3.9496,-3.9083,-3.9141,-3.9147,-3.9216,-3.9233,-3.9281,-3.93,-3.9326,-3.9347,-3.9405,-3.944,-3.9452,-3.9475,-3.9517,-3.9555,-3.9559,-3.9573,-3.9591,-3.9592,-3.951,-3.9499,-3.9488,-3.9474,-3.9595,-3.9595,-3.9675,-3.9676,-3.9677]},{"header":{"parameterUnit":"m.s-1","parameterCategory":1,"la1":30.2991,"la2":30.254,"lo1":-89.0895,"lo2":-89.0444,"dy":0.0017,"dx":0.0017,"nx":28,"ny":28,"refTime":"2024-05-22T03:00:00:Z","depth":0,"parameterNumber":3,"parameterNumberName":"V-component_of_WINDS"},"data":[0,0,0,0,0,0,0,0,0,0,0,0,0,0,0,0,0,0,0,0,0,0,0,0,0,0,0,0,0,0,0,0,0,0,0,0,0,0,0,0,0,0,0,0,0,0,0,0,0,0,0,0,0,0,0,0,0,0,4.4484,4.4484,0,4.4466,4.4466,4.4466,4.4474,4.4474,4.4475,4.4475,4.4451,4.445,4.4449,0,0,0,0,0,0,0,0,0,0,0,0,0,4.4522,4.4521,4.4484,4.4484,4.4484,4.4466,4.4466,4.4466,4.4474,4.4474,4.4475,4.4475,4.4452,4.4451,4.4449,0,0,0,0,0,0,0,0,0,0,0,0,0,4.4505,4.4521,4.4484,4.4486,4.4486,4.4466,4.4466,4.4466,4.4473,4.4474,4.4475,4.4475,4.4452,4.4451,4.4449,4.4426,0,0,4.4444,4.4444,0,0,0,0,0,0,0,0,4.4506,4.4503,4.4486,4.4486,4.4486,4.4473,4.4471,4.4452,4.4473,4.4478,4.4475,4.4476,4.4458,4.4456,4.4451,4.4425,4.4424,4.4444,4.4443,4.4443,4.4442,0,0,0,0,0,0,0,4.4507,4.4504,4.4477,4.4486,4.4485,4.4486,4.4484,4.4467,4.4464,4.4478,4.4478,4.4476,4.4458,4.4452,4.445,4.4423,4.4444,4.4443,4.4442,4.4441,4.4379,4.4378,0,0,0,0,0,0,4.4508,4.4505,4.4478,4.4477,4.4498,4.4485,4.4483,4.4476,4.4464,4.4463,4.4476,4.4477,4.4455,4.4452,4.4449,4.4422,4.4443,4.4441,4.444,4.4379,4.4378,4.4378,0,0,0,0,0,0,4.4509,4.4506,4.4478,4.4491,4.4488,4.4484,4.4476,4.4476,4.447,4.4463,4.4462,4.4471,4.4455,4.4452,4.4432,4.4421,4.444,4.4439,4.438,4.4379,4.4378,4.4367,0,0,0,0,0,0,4.451,4.4506,4.4498,4.4491,4.4487,4.4463,4.4475,4.4475,4.4468,4.4469,4.4458,4.4457,4.4455,4.4435,4.4431,4.442,4.4438,4.4381,4.438,4.4378,4.4368,4.4366,4.4364,0,0,0,0,0,4.4512,4.4494,4.4498,4.4494,4.4477,4.4462,4.446,4.446,4.4467,4.4458,4.4454,4.4457,4.4423,4.4433,4.4428,4.4416,4.4382,4.438,4.4378,4.4369,4.4366,4.4364,0,0,0,0,0,0,4.4499,4.4493,4.4497,4.4477,4.447,4.4463,4.4452,4.4456,4.4445,4.4447,4.4446,4.4443,4.4423,4.4418,4.4428,4.4394,4.4403,4.4401,4.4398,4.4395,4.4393,4.4394,4.4436,0,0,0,0,0,4.4494,4.4484,4.4479,4.4462,4.4459,4.4456,4.445,4.4451,4.4442,4.4439,4.4433,4.4424,4.4411,4.4403,4.4391,4.4368,4.4366,4.4358,4.4355,4.4353,4.4351,4.4339,4.4336,4.4372,4.4372,4.4372,0,0,4.4483,4.4479,4.4472,4.4459,4.4454,4.4443,4.4454,4.444,4.4432,4.4436,4.4419,4.4414,4.4404,4.4383,4.4373,4.4378,4.4341,4.4351,4.435,4.4348,4.4337,4.4333,4.433,4.4371,4.4371,4.4371,0,0,4.4458,4.4454,4.444,4.4435,4.4427,4.4426,4.4423,4.4416,4.4414,4.4396,4.44,4.4388,4.4367,4.436,4.4353,4.4327,4.4329,4.4323,4.431,4.4298,4.4295,4.4293,4.4284,4.428,4.432,4.432,4.432,0,4.4445,4.4429,4.4431,4.4419,4.4413,4.4419,4.4404,4.4399,4.4387,4.4382,4.4388,4.4362,4.4355,4.4333,4.4327,4.4322,4.4317,4.4324,4.4296,4.4293,4.4291,4.4282,4.4279,4.432,4.432,4.432,4.432,0,4.4414,4.4402,4.4392,4.4383,4.4376,4.4362,4.4361,4.4354,4.4356,4.4353,4.4336,4.4328,4.4315,4.431,4.4311,4.4288,4.4291,4.4296,4.4306,4.4287,4.4278,4.4275,4.4319,4.4319,4.4319,4.4319,0,0,4.4378,4.4373,4.4368,4.4365,4.4358,4.4349,4.4335,4.4324,4.4318,4.431,4.4298,4.4281,4.4286,4.4278,4.4278,4.4268,4.4249,4.4275,4.4274,4.427,4.4224,4.422,4.4216,4.4251,4.425,4.4249,4.4225,0,4.4353,4.4331,4.4334,4.4312,4.4302,4.4308,4.4297,4.429,4.4288,4.4278,4.4276,4.4263,4.4271,4.4267,4.4257,4.4253,4.4239,4.4255,4.4239,4.4238,4.4241,4.4212,4.4208,4.4185,4.4221,4.4221,4.422,0,4.432,4.4313,4.4291,4.4287,4.4283,4.4272,4.4263,4.4254,4.4247,4.4246,4.4239,4.4241,4.4227,4.4238,4.4217,4.4228,4.4222,4.4219,4.4218,4.4216,4.4228,4.4209,4.4177,4.4174,4.4215,4.4216,4.4216,0,4.4297,4.4282,4.4268,4.4264,4.4259,4.4251,4.4248,4.4242,4.4236,4.4228,4.4224,4.4213,4.4207,4.4198,4.4197,4.4205,4.4177,4.4187,4.4175,4.4175,4.4169,4.4169,4.4135,4.4165,4.4165,4.4165,4.4165,0,4.4268,4.4255,4.4258,4.4248,4.4233,4.4236,4.4221,4.4218,4.4213,4.4203,4.4207,4.4197,4.4197,4.4186,4.4185,4.4169,4.4166,4.4165,4.4164,4.4164,4.4164,4.416,4.4161,4.4164,4.4164,4.4164,4.4164,0,4.424,4.4241,4.4226,4.4223,4.4222,4.4211,4.4207,4.4198,4.4197,4.4185,4.4182,4.418,4.4168,4.4166,4.4152,4.4151,4.4132,4.4133,4.4135,4.4135,4.4123,4.4124,4.4085,4.408,4.4113,4.4112,4.4112,0,4.4222,4.4212,4.4208,4.4203,4.42,4.4191,4.4185,4.4187,4.4181,4.4173,4.4165,4.4154,4.4145,4.4126,4.4123,4.4112,4.4113,4.41,4.4111,4.4112,4.4113,4.4114,4.4113,4.4097,4.4097,4.4097,4.4097,0,4.4189,4.419,4.4183,4.4176,4.417,4.4164,4.4158,4.4153,4.4154,4.4147,4.4136,4.4129,4.4116,4.4105,4.4095,4.409,4.4093,4.4093,4.409,4.409,4.4091,4.4091,4.4129,4.4094,4.4094,4.4094,4.4095,4.4095,4.4165,4.4157,4.4154,4.4145,4.4142,4.4137,4.4129,4.4128,4.4119,4.411,4.4111,4.4099,4.4093,4.408,4.4075,4.4065,4.4069,4.4064,4.4063,4.4061,4.4061,4.4093,4.4063,4.4063,4.4063,4.4063,4.4063,0,4.4133,4.4132,4.4124,4.4117,4.4111,4.4116,4.411,4.4104,4.4094,4.4089,4.4081,4.4069,4.4059,4.4055,4.4045,4.4037,4.4039,4.4035,4.4035,4.4034,4.4057,4.4061,4.4034,4.4034,4.4034,4.4034,4.4034,4.4034,4.4115,4.4102,4.4104,4.4089,4.4087,4.4077,4.4073,4.4068,4.4065,4.4051,4.4044,4.4042,4.4037,4.4027,4.4018,4.4017,4.4013,4.4008,4.4008,4.4029,4.4032,4.4035,4.4039,4.4007,4.4007,4.3985,4.3985,4.3985]}]]